Weather in Anisimovo

Russia / Vologda Oblast     59°10′24″N   35°07′51″E
temp.,
°C
wind,
m/s
gust,
m/s
humid.,
%
clouds,
%
prec.,
mm/h
press.,
hPa
HPBL,
m
11 april, sun
sun1100:00+1wsw2898100 2.8 1019385
03:000sw399610 2.8 1021258
06:00−3sw279820 0.0 1023121
09:00+3wsw36775 0.0 1025432
12:00+6wsw35591 0.0 10271061
15:00+7wsw34504 0.0 10281397
18:00+6ne00725 0.0 102910
21:000ese229171 0.0 103231
12 april, mon
mon1200:000ese1298100 0.0 103336
03:00+3ese2896100 0.1 1032193
06:00+4ese3109899 0.4 1032272
09:00+7sse389295 0.4 1031304
12:00+13s486357 0.0 1031904
15:00+15s49587 0.0 10291365
18:00+13sse410655 0.0 1028549
21:00+9sse413814 0.0 1028502
13 april, tue
tue1300:00+8se41188100 0.0 1026521
03:00+7sse31193100 0.8 1025606
06:00+7s31095100 1.6 1024466
09:00+8s3895100 2.2 1023401
12:00+9s389274 0.6 1023474
15:00+13ssw3780100 0.7 1022411
18:00+12s268367 0.1 1021172
21:00+9s27945 0.1 1021137
14 april, wed
wed1400:00+8ssw2696100 0.0 1021124
03:00+8wsw1196100 0.0 102017
06:00+7nnw2498100 1.5 1020176
09:00+5n3692100 2.8 1021289
12:00+4n3686100 0.0 1022383
15:00+3n4789100 0.2 1022397
18:00+3n3889100 0.0 1023455
21:00+2n3894100 0.1 1024468
15 april, thu
thu1500:00+2nne3895100 0.3 1023385
03:00+2nne1594100 0.5 1024265
06:00+1nne2696100 0.3 1024273
09:00+3ne3584100 0.4 1024568
12:00+6nne4564100 0.0 10241001
15:00+7nne4655100 0.0 10251140
18:00+5nne4860100 0.0 10261025
21:00+2nne41166100 0.0 1029568